Location: Penton Mewsey
(51.2167°N, 1.5167°W)
Time: 09:36:34
(UTC+00:00)

SL-08 RB Rocket - Pass Details

Date: 30 March 2020
Orbit: 646 x 685 km, 97.8° (Epoch: 06 June)

Event Time Altitude Azimuth Distance (km) Brightness Sun altitude
Exits shadow 20:12:25 - 177° (S) 2,625 6.5 -15.1°
Reaches altitude 10° 20:13:49 10° 181° (S) 2,065 6.0 -15.3°
Maximum altitude 20:18:15 56° 259° (W) 788 4.3 -15.9°
Drops below altitude 10° 20:22:47 10° 339° (NNW) 2,105 7.0 -16.5°
Sets 20:25:05 0° 344° (NNW) 3,030 7.8 -16.8°
